Change the Weather History Date:

Sunday, March 9, 2014

  Actual Average Record
Temperature  
Mean Temperature 46 °F 47 °F  
Max Temperature 57 °F 57 °F 86 °F (1911)
Min Temperature 34 °F 36 °F 8 °F (1932)
Degree Days  
Heating Degree Days 19 18  
Month to date heating degree days 269 177  
Since 1 July heating degree days 3804 3349  
Cooling Degree Days 0 0  
Month to date cooling degree days 0 0  
Year to date cooling degree days 0 0  
Moisture  
Dew Point 36 °F    
Average Humidity 79    
Maximum Humidity 100    
Minimum Humidity 57    
Precipitation  
Precipitation 0.00 in 0.11 in 4.47 in (1967)
Month to date precipitation 1.08 0.99  
Year to date precipitation 3.03 6.19  
Snow  
Snow 0.00 in 0.10 in 6.00 in (1964)
Month to date snowfall 5.0 0.9  
Since 1 July snowfall 20.8 10.1  
Snow Depth 0.00 in    
Sea Level Pressure  
Sea Level Pressure 30.26 in    
Wind  
Wind Speed 3 mph (South)    
Max Wind Speed 10 mph    
Max Gust Speed 13 mph    
Visibility 4 miles    
Events      
T = Trace of Precipitation, MM = Missing Value Source: NWS Daily Summary

Daily Weather History Graph

Daily Weather History Graph

Search for Another Location

Airport or City:

Trip Planner

Search our weather history database for the weather conditions in past years. The results will help you decide how hot, cold, wet, or windy it might be!

Date:

Astronomy

Mar. 09, 2014 Rise Set
Actual Time 7:31 AM CDT 7:14 PM CDT
Civil Twilight 7:06 AM CDT 7:40 PM CDT
Nautical Twilight 6:36 AM CDT 8:10 PM CDT
Astronomical Twilight 6:06 AM CDT 8:40 PM CDT
Moon 1:15 PM CDT (3/9) 3:50 AM CDT (3/9)
Length of Visible Light 12h 34m
Length of Day
11h 42m
First Quarter, 61% of the Moon is Illuminated
Mar 9
First Quarter
Mar 16
Full
Mar 23
Last Quarter
Mar 30
New
Apr 7
First Quarter

Hourly Weather History & Observations

Time (CDT) Temp. Windchill Dew Point Humidity Pressure Visibility Wind Dir Wind Speed Gust Speed Precip Events Conditions
12:09 AM 35.6 °F - 33.8 °F 93% 30.29 in 3.0 mi Calm Calm - N/A   Overcast
12:37 AM 35.6 °F 31.7 °F 32.0 °F 87% 30.28 in 3.0 mi NNE 4.6 mph - N/A   Overcast
12:49 AM 35.6 °F 31.7 °F 33.8 °F 93% 30.28 in 3.0 mi NE 4.6 mph - N/A   Overcast
12:53 AM 35.1 °F - 33.1 °F 92% 30.29 in 3.0 mi Calm Calm - N/A   Overcast
1:23 AM 35.6 °F - 33.8 °F 93% 30.28 in 3.0 mi Calm Calm - N/A   Overcast
1:39 AM 35.6 °F 32.8 °F 33.8 °F 93% 30.28 in 3.0 mi North 3.5 mph - N/A   Overcast
1:53 AM 35.1 °F - 33.1 °F 92% 30.30 in 2.5 mi Calm Calm - N/A   Overcast
3:53 AM 34.0 °F 28.8 °F 32.0 °F 92% 30.29 in 2.5 mi North 5.8 mph - N/A   Overcast
4:53 AM 34.0 °F 31.0 °F 33.1 °F 96% 30.30 in 2.5 mi North 3.5 mph - N/A   Overcast
5:36 AM 35.6 °F - 32.0 °F 87% 30.28 in 3.0 mi Calm Calm - N/A   Overcast
5:53 AM 35.1 °F - 32.0 °F 89% 30.31 in 3.0 mi Calm Calm - N/A   Overcast
6:53 AM 35.1 °F - 33.1 °F 92% 30.32 in 3.0 mi Calm Calm - N/A   Overcast
7:33 AM 35.6 °F - 32.0 °F 87% 30.30 in 2.5 mi Calm Calm - N/A   Overcast
7:42 AM 35.6 °F - 32.0 °F 87% 30.30 in 3.0 mi Calm Calm - N/A   Overcast
7:49 AM 33.8 °F - 32.0 °F 93% 30.30 in 2.5 mi Calm Calm - N/A   Overcast
7:53 AM 34.0 °F - 32.0 °F 92% 30.33 in 2.5 mi Calm Calm - N/A   Overcast
8:15 AM 35.6 °F 32.8 °F 32.0 °F 87% 30.30 in 1.8 mi SE 3.5 mph - N/A   Overcast
8:53 AM 35.1 °F - 33.1 °F 92% 30.34 in 1.8 mi Calm Calm - N/A   Overcast
9:19 AM 35.6 °F 32.8 °F 33.8 °F 93% 30.31 in 1.8 mi East 3.5 mph - N/A   Overcast
9:33 AM 35.6 °F 30.7 °F 33.8 °F 93% 30.31 in 1.8 mi SSE 5.8 mph - N/A   Overcast
9:53 AM 36.0 °F 32.1 °F 33.1 °F 89% 30.34 in 1.8 mi SE 4.6 mph - N/A   Overcast
10:11 AM 35.6 °F - 33.8 °F 93% 30.31 in 2.0 mi Calm Calm - N/A   Overcast
10:23 AM 35.6 °F 30.7 °F 33.8 °F 93% 30.31 in 2.0 mi South 5.8 mph - N/A   Overcast
10:53 AM 37.9 °F 35.5 °F 34.0 °F 86% 30.33 in 2.5 mi SSE 3.5 mph - N/A   Overcast
11:03 AM 37.4 °F 34.9 °F 33.8 °F 87% 30.31 in 2.5 mi Variable 3.5 mph - N/A   Overcast
11:20 AM 39.2 °F 37.0 °F 33.8 °F 81% 30.30 in 3.0 mi SSE 3.5 mph - N/A   Haze
11:53 AM 41.0 °F 37.1 °F 35.1 °F 79% 30.32 in 3.0 mi SSE 5.8 mph - N/A   Haze
12:53 PM 46.0 °F 44.8 °F 37.0 °F 71% 30.30 in 4.0 mi Variable 3.5 mph - N/A   Haze
1:53 PM 51.1 °F - 37.9 °F 61% 30.26 in 5.0 mi Variable 3.5 mph - N/A   Haze
2:53 PM 54.0 °F - 39.9 °F 59% 30.23 in 6.0 mi NW 4.6 mph - N/A   Haze
3:23 PM 53.6 °F - 39.2 °F 58% 30.21 in 6.0 mi West 4.6 mph - N/A   Haze
3:53 PM 55.0 °F - 41.0 °F 59% 30.19 in 8.0 mi SSW 8.1 mph - N/A   Mostly Cloudy
4:00 PM 55.4 °F - 41.0 °F 58% 30.17 in 8.0 mi Variable 5.8 mph - N/A   Mostly Cloudy
4:53 PM 57.0 °F - 42.1 °F 57% 30.15 in 10.0 mi South 8.1 mph - N/A   Partly Cloudy
5:53 PM 55.9 °F - 41.0 °F 57% 30.14 in 8.0 mi SSE 4.6 mph - N/A   Clear
6:53 PM 53.1 °F - 41.0 °F 64% 30.13 in 10.0 mi WSW 4.6 mph - N/A   Clear
7:53 PM 50.0 °F - 41.0 °F 71% 30.13 in 10.0 mi West 3.5 mph - N/A   Clear
8:53 PM 48.0 °F - 41.0 °F 77% 30.15 in 10.0 mi West 4.6 mph - N/A   Clear
9:53 PM 46.0 °F 43.9 °F 39.9 °F 79% 30.14 in 9.0 mi SW 4.6 mph - N/A   Clear
10:53 PM 44.1 °F 41.5 °F 39.0 °F 82% 30.14 in 7.0 mi SW 4.6 mph - N/A   Clear
11:53 PM 42.1 °F 40.2 °F 39.0 °F 89% 30.13 in 7.0 mi South 3.5 mph - N/A   Clear
12:53 AM 43.0 °F - 39.0 °F 86% 30.11 in 10.0 mi Calm Calm - N/A   Clear